Regional Weather Roundup
Issued by NWS Charleston, WV

Home | Current Version | Previous Version | Text Only | Print | Product List | Glossary On
Versions: 1 2 3 4 5 6 7 8 9 10 11 12 13 14 15 16 17 18 19 20 21 22 23 24 25 26 27 28 29 30 31 32 33 34 35 36 37 38 39 40 41 42 43 44 45 46 47 48 49 50
000
ASUS41 KRLX 051710
RWRRLX
West Virginia Regional Weather Roundup
National Weather Service Charleston WV
100 PM EDT SUN JUL 05 2015

Note: "fair" indicates few or no clouds below 12,000 feet with no
significant weather and/or obstructions to visibility.

WVZ003-051800-
Northern Panhandle of West Virginia

CITY           SKY/WX    TMP DP  RH WIND       PRES   REMARKS
WHEELING       MOSUNNY   78  60  53 E5        30.14F
$$

WVZ009-051800-
Northwest West Virginia

CITY           SKY/WX    TMP DP  RH WIND       PRES   REMARKS
PARKERSBURG    CLOUDY    81  65  58 CALM      30.14S
$$

WVZ006-051800-
Western West Virginia

CITY           SKY/WX    TMP DP  RH WIND       PRES   REMARKS
HUNTINGTON     CLOUDY    71  68  90 NE5       30.09S
$$

WVZ015-051800-
West Central West Virginia

CITY           SKY/WX    TMP DP  RH WIND       PRES   REMARKS
CHARLESTON     CLOUDY    78  68  71 N3        30.10S
$$

WVZ022-031-051800-
North Central West Virginia

CITY           SKY/WX    TMP DP  RH WIND       PRES   REMARKS
CLARKSBURG     MOSUNNY   79  64  60 VRB3      30.13S
MORGANTOWN     MOSUNNY   82  59  45 N5        30.15S
$$

WVZ025-035-042-045-051800-
Southern West Virginia

CITY           SKY/WX    TMP DP  RH WIND       PRES   REMARKS
BECKLEY        PTSUNNY   75  64  68 SE10G18   30.17F
LOGAN            N/A     77  68  73 CALM      30.08F
BLUEFIELD      PTSUNNY   76  64  66 E6        30.18F
LEWISBURG      CLOUDY    74  66  74 E5        30.19S
$$

WVZ047-051800-
Northern Mountains of West Virginia

CITY           SKY/WX    TMP DP  RH WIND       PRES   REMARKS
ELKINS         PTSUNNY   78  63  59 SW5       30.16F
$$

WVZ052-051800-
Eastern Panhandle of West Virginia

CITY           SKY/WX    TMP DP  RH WIND       PRES   REMARKS
MARTINSBURG    MOSUNNY   77  66  68 VRB3      30.17S
PETERSBURG     MOSUNNY   81  63  54 CALM      30.15F
$$


USA.gov is the U.S. government's official web portal to all federal, state and local government web resources and services.